星链-6053 (STARLINK-6053 )

导读 | 星芒AI

STARLINK-6053 是 SpaceX 星链计划中的一颗低轨通信卫星,属于第 18 批组网发射的星链卫星之一。该卫星于 2022 年 6 月 由猎鹰 9 号火箭送入近地轨道,旨在为全球用户提供高速互联网服务。星链系统通过部署大量卫星,构建覆盖全球的宽带网络,尤其服务于偏远地区。STARLINK-6053 采用先进推进和通信技术,具备自动避撞能力,是实现星链全球覆盖目标的重要组成部分。

基本信息
目录编号:
56466
目录名称:
STARLINK-6053
国际标识:
2023-064U
轨道中心:
EARTH
卫星名称:
星链-6053
卫星全名:
星链-6053 (STARLINK-6053 )
卫星状态:
在轨 (已飞行909 天)
发射日期:
2023-05-10 UTC
国别 :
美国 (US)
星等 :
--
轨道信息
数据来源 国际轨道数据 AOE轨道数据
星历时间 2025-11-02T19:22:31+0800
1天前
查看轨道信息
2025-11-02T08:00:00+0800
2天前
查看轨道信息
半长轴 6950.197km 6950.188km
偏心率 0.0002962 0.0002912
轨道倾角 69.998° 69.999°
近地点辐角 271.802° 278.163°
升交点赤经 105.081° 106.275°
平近点角 88.279° 46.080°
近地点 570.003km 570.029km
远地点 574.121km 574.077km
周期 96.107分钟 96.107分钟
每日圈数 14.983288 14.983319
详细信息
固有亮度:
5
最大亮度:
2.5
卫星平台:
Starlink v1.5
覆盖范围:
全球
运营商:
太空探索技术公司
运营商所在国:
美国
制造商(研发单位):
太空探索技术公司
制造商所在国:
美国
使用方式:
暂无
卫星简介
星链(Starlink)计划是由太空探索技术公司(SpaceX)提出的一个巨型低轨卫星互联网星座项目,计划在2019年至2024年间在太空搭建由约1.2万颗卫星组成的“星链”网络,其中1584颗将部署在地球上空550千米处的近地轨道,并从2020年开始工作。该卫星仍在工作。
2D轨道图
3D轨道图
轨道高度分析图
轨道倾角分析图
轨道综合分析图
查看轨道综合分析图